Stations météo

Publicité
La Roche-Sur-Yon, France (7306): Température de l'air & dewpoint: 14.04.2019 15:00:00 - 20.04.2019 15:00:00 (CEST)La Roche-Sur-Yon, France (7306): Température de l'air 5cm: 14.04.2019 15:00:00 - 20.04.2019 15:00:00 (CEST)La Roche-Sur-Yon, France (7306): Température de l'air -20cm & Température de l'air -100cm: 14.04.2019 15:00:00 - 20.04.2019 15:00:00 (CEST)La Roche-Sur-Yon, France (7306): Vitesse du vent & gusts: 14.04.2019 15:00:00 - 20.04.2019 15:00:00 (CEST)La Roche-Sur-Yon, France (7306): Direction du vent: 14.04.2019 15:00:00 - 20.04.2019 15:00:00 (CEST)La Roche-Sur-Yon, France (7306): reduced air pressure: 14.04.2019 15:00:00 - 20.04.2019 15:00:00 (CEST)La Roche-Sur-Yon, France (7306): visibility: 14.04.2019 15:00:00 - 20.04.2019 15:00:00 (CEST)La Roche-Sur-Yon, France (7306): Ensoleillement: 14.04.2019 15:00:00 - 20.04.2019 15:00:00 (CEST)La Roche-Sur-Yon, France (7306): Quantités de précipitations: 14.04.2019 15:00:00 - 20.04.2019 15:00:00 (CEST)
Date & Time tt [°C] td [°C] tt 5cm [°C] tt -20cm [°C] tt -100cm [°C] ff [km/h] ff [knt] fx [km/h] fx [knt] dd ppp [hPa] vv [km] sd [min] rr [mm]
20.04.2019 15:00:00 22,2 13,3 28,3 13,4 11,3 16 9 36 19 NE 1023,0 29 60 0,0
20.04.2019 14:00:00 21,4 12,8 27,4 13,3 11,3 20 11 33 18 NE 1023,4 20 60 0,0
20.04.2019 13:00:00 20,7 13,2 26,7 13,2 11,3 18 10 26 14 NNE 1024,0 17 60 0,0
20.04.2019 12:00:00 19,1 12,6 24,3 13,1 11,3 18 10 28 15 N 1024,2 16 60 0,0
20.04.2019 11:00:00 18,9 12,2 20,0 13,2 11,3 7 4 12 7 N 1024,5 18 60 0,0
20.04.2019 10:00:00 16,2 11,4 14,6 13,2 11,3 8 5 13 7 N 1024,9 18 36 0,0
20.04.2019 09:00:00 13,8 9,8 8,1 13,3 11,2 7 4 11 6 NNE 1025,3 18 60 0,0
20.04.2019 08:00:00 9,7 8,0 6,5 13,4 11,2 6 4 14 8 NE 1025,3 16 27 0,0
20.04.2019 07:00:00 9,4 8,0 5,2 13,5 11,2 13 7 16 8 N 1024,8 14 0 0,0
20.04.2019 06:00:00 10,1 8,0 5,9 13,6 11,2 4 2 14 7 ENE 1024,9 18 0 0,0
20.04.2019 05:00:00 10,8 8,2 6,7 13,7 11,2 9 5 13 7 NNE 1025,0 25 0 0,0
20.04.2019 04:00:00 11,4 8,4 7,9 13,8 11,2 11 6 15 8 NNE 1024,9 30 0 0,0
20.04.2019 03:00:00 11,7 8,2 8,4 13,9 11,2 11 6 22 12 NNE 1025,1 36 0 0,0
20.04.2019 02:00:00 12,8 8,1 8,7 14,0 11,2 9 5 19 11 N 1025,4 47 0 0,0
20.04.2019 01:00:00 14,0 8,4 8,6 14,1 11,2 10 5 13 7 NE 1025,6 51 0 0,0
20.04.2019 00:00:00 14,9 7,7 10,4 14,1 11,1 11 6 14 8 NNE 1025,6 60 0 0,0
19.04.2019 23:00:00 17,0 7,9 10,7 14,1 11,1 10 6 12 7 NNE 1025,5 60 0 0,0
19.04.2019 22:00:00 18,6 8,3 10,7 14,1 11,2 9 5 10 5 NNE 1025,1 60 0 0,0
19.04.2019 21:00:00 19,5 8,5 12,5 13,9 11,1 6 3 13 7 NNE 1024,4 60 35 0,0
19.04.2019 20:00:00 21,5 10,6 22,3 13,8 11,1 10 5 14 8 N 1023,8 60 60 0,0
19.04.2019 19:00:00 23,5 9,8 27,6 13,6 11,1 8 4 18 10 NE 1023,5 60 60 0,0
19.04.2019 18:00:00 23,9 8,7 28,9 13,3 11,1 14 8 21 12 NNE 1023,4 46 60 0,0
19.04.2019 17:00:00 23,8 7,8 29,9 13,1 11,1 12 6 21 12 NE 1023,2 60 60 0,0
19.04.2019 16:00:00 23,8 9,0 30,3 12,9 11,1 10 5 27 14 NNE 1023,3 57 60 0,0
19.04.2019 15:00:00 23,7 9,7 30,7 12,6 11,1 6 3 18 10 E 1023,4 52 60 0,0
19.04.2019 14:00:00 23,0 8,7 29,8 12,5 11,1 8 4 20 11 ESE 1023,3 60 60 0,0
19.04.2019 13:00:00 22,0 6,2 27,2 12,4 11,1 13 7 27 14 ESE 1023,5 20 60 0,0
19.04.2019 12:00:00 20,9 7,1 22,5 12,4 11,1 16 8 25 14 SE 1023,6 60 60 0,0
19.04.2019 11:00:00 18,1 6,6 16,1 12,4 11,1 12 6 21 12 SE 1023,3 20 31 0,0
19.04.2019 10:00:00 15,8 6,0 12,2 12,4 11,1 10 6 17 9 ESE 1022,9 55 0 0,0
19.04.2019 09:00:00 12,8 7,0 9,5 12,5 11,0 10 5 16 9 ESE 1022,4 56 4 0,0
19.04.2019 08:00:00 12,8 5,5 6,2 12,6 11,1 10 5 17 9 ESE 1021,9 55 26 0,0
19.04.2019 07:00:00 9,1 6,0 6,3 12,7 11,0 11 6 15 8 E 1021,2 57 0 0,0
19.04.2019 06:00:00 9,1 6,7 6,1 12,8 11,0 10 5 14 8 E 1020,8 58 0 0,0
19.04.2019 05:00:00 10,3 7,7 6,5 12,8 11,0 10 5 14 7 E 1020,1 58 0 0,0
19.04.2019 04:00:00 10,3 7,4 6,9 12,9 11,0 10 5 14 7 E 1019,7 60 0 0,0
19.04.2019 03:00:00 10,7 9,1 7,4 13,0 11,0 9 5 12 7 ENE 1019,5 37 0 0,0
19.04.2019 02:00:00 11,4 9,6 8,6 13,0 11,0 11 6 15 8 ENE 1019,4 30 0 0,0
19.04.2019 01:00:00 11,4 10,0 8,1 13,1 11,0 9 5 16 9 NE 1019,4 19 0 0,0
19.04.2019 00:00:00 11,9 10,0 8,0 13,1 11,0 5 3 13 7 N 1018,9 32 0 0,0
18.04.2019 23:00:00 13,4 11,3 9,7 13,1 11,0 9 5 13 7 NNW 1018,6 39 0 0,0
18.04.2019 22:00:00 16,0 11,8 10,2 13,0 11,0 8 4 11 6 W 1018,1 52 0 0,0
18.04.2019 21:00:00 16,8 11,7 12,7 12,9 11,0 6 4 8 4 NW 1017,2 60 34 0,0
18.04.2019 20:00:00 19,8 11,6 20,1 12,8 11,0 0 0 6 3 N 1016,5 60 60 0,0
18.04.2019 19:00:00 20,3 12,5 24,3 12,6 11,0 6 3 15 8 S 1016,3 60 53 0,0
18.04.2019 18:00:00 20,7 12,9 25,7 12,4 11,0 9 5 16 9 SSW 1016,3 58 60 0,0
18.04.2019 17:00:00 20,4 12,1 25,1 12,2 11,0 10 6 21 12 SSW 1016,1 59 55 0,0
18.04.2019 16:00:00 20,5 11,9 27,0 12,0 11,0 9 5 22 12 SSE 1016,2 60 60 0,0
18.04.2019 15:00:00 19,6 11,1 23,6 11,9 11,0 11 6 24 13 SSE 1016,1 60 54 0,0
18.04.2019 14:00:00 18,2 11,0 19,4 11,8 11,0 14 8 24 13 S 1016,1 60 11 0,0
18.04.2019 13:00:00 16,6 8,8 18,4 11,7 11,0 15 8 30 16 ESE 1016,0 57 0 0,0
18.04.2019 12:00:00 16,1 8,3 17,2 11,7 11,0 19 10 38 20 SE 1016,0 60 0 0,0
18.04.2019 11:00:00 15,6 7,6 15,3 11,7 11,0 21 11 34 19 ESE 1016,0 60 0 0,0
18.04.2019 10:00:00 14,5 7,3 14,0 11,7 10,9 18 10 31 17 SE 1015,6 60 0 0,0
18.04.2019 09:00:00 14,0 6,8 12,5 11,7 10,9 16 9 29 16 SE 1015,5 59 24 0,0
18.04.2019 08:00:00 13,9 6,5 10,8 11,8 10,9 14 8 28 15 SE 1014,8 60 0 0,0
18.04.2019 07:00:00 12,0 7,3 10,8 11,8 10,9 19 10 29 15 E 1013,7 60 0 0,0
18.04.2019 06:00:00 12,7 7,2 10,9 11,9 10,9 18 10 27 15 E 1013,5 60 0 0,0
18.04.2019 05:00:00 13,0 7,2 9,1 11,9 10,9 14 8 24 13 ESE 1013,8 60 0 0,0
18.04.2019 04:00:00 11,0 8,0 7,3 12,0 10,9 15 8 21 11 E 1014,1 60 0 0,0
18.04.2019 03:00:00 9,6 7,7 6,3 12,1 10,9 8 5 15 8 ESE 1014,7 60 0 0,0
18.04.2019 02:00:00 9,9 7,5 7,5 12,1 10,9 11 6 18 10 E 1014,5 60 0 0,0
18.04.2019 01:00:00 11,5 7,8 9,0 12,2 10,9 12 7 24 13 E 1014,0 60 0 0,0
18.04.2019 00:00:00 12,6 8,5 10,5 12,2 10,9 19 10 25 13 E 1013,7 60 0 0,0
17.04.2019 23:00:00 13,3 8,4 10,9 12,2 10,9 17 9 26 14 E 1013,4 60 0 0,0
17.04.2019 22:00:00 14,2 8,2 11,6 12,2 10,9 14 7 24 13 ENE 1013,2 60 0 0,0
17.04.2019 21:00:00 15,7 8,7 13,4 12,1 10,9 16 9 23 13 ENE 1012,6 60 32 0,0
17.04.2019 20:00:00 16,5 9,4 15,2 12,0 10,9 11 6 21 11 ENE 1012,3 60 7 0,0
17.04.2019 19:00:00 17,5 9,4 16,2 11,9 10,9 16 9 29 15 E 1012,4 60 0 0,0
17.04.2019 18:00:00 18,8 9,3 18,6 11,8 10,9 16 8 33 18 E 1012,5 60 0 0,0
17.04.2019 17:00:00 19,1 6,9 18,9 11,7 10,9 21 11 35 19 ESE 1012,7 60 0 0,0
17.04.2019 16:00:00 19,0 7,1 19,4 11,6 10,9 21 12 39 21 E 1013,2 60 0 0,0
17.04.2019 15:00:00 18,5 8,2 18,8 11,5 10,9 23 12 41 22 E 1013,5 60 0 0,0
17.04.2019 14:00:00 17,9 7,9 19,1 11,4 10,9 27 15 41 22 E 1013,7 60 13 0,0
17.04.2019 13:00:00 17,9 7,6 20,0 11,3 10,9 28 15 45 24 E 1014,6 37 54 0,0
17.04.2019 12:00:00 17,5 7,2 19,0 11,2 10,8 24 13 42 23 ESE 1015,3 47 60 0,0
17.04.2019 11:00:00 15,9 7,9 16,2 11,2 10,9 23 12 35 19 E 1015,9 20 58 0,0
17.04.2019 10:00:00 14,4 9,4 11,6 11,3 10,8 16 9 29 16 ESE 1015,8 59 60 0,0
17.04.2019 09:00:00 11,2 8,6 7,5 11,4 10,9 15 8 22 12 E 1015,9 60 56 0,0
17.04.2019 08:00:00 8,6 7,4 6,2 11,4 10,8 14 8 19 11 E 1015,9 59 13 0,0
17.04.2019 07:00:00 8,4 7,0 6,7 11,5 10,9 18 10 28 15 E 1016,0 58 0 0,0
17.04.2019 06:00:00 8,6 7,5 6,5 11,6 10,9 17 9 24 13 E 1016,4 53 0 0,0
17.04.2019 05:00:00 7,5 7,1 5,5 11,7 10,8 14 8 20 11 E 1017,2 37 0 0,0
17.04.2019 04:00:00 7,1 6,7 4,6 11,8 10,9 11 6 17 9 ENE 1017,5 20 0 0,0
17.04.2019 03:00:00 7,3 7,0 3,9 11,9 10,8 12 6 16 9 ENE 1018,2 20 0 0,0
17.04.2019 02:00:00 6,4 6,1 3,7 11,9 10,8 10 6 13 7 ENE 1018,8 12 0 0,0
17.04.2019 01:00:00 6,6 6,3 3,9 12,0 10,8 8 5 10 5 NE 1019,1 16 0 0,0
17.04.2019 00:00:00 6,9 6,3 4,2 12,1 10,8 5 3 6 3 NE 1019,2 18 0 0,0
16.04.2019 23:00:00 8,7 7,8 4,3 12,1 10,8 3 1 3 2 WNW 1019,6 49 0 0,0
16.04.2019 22:00:00 9,5 7,4 5,1 12,1 10,8 2 1 9 5 W 1019,5 57 0 0,0
16.04.2019 21:00:00 11,1 8,1 8,8 12,0 10,8 7 4 18 10 W 1019,3 60 5 0,0
16.04.2019 20:00:00 13,8 8,4 14,6 11,9 10,8 10 5 20 11 W 1018,8 59 60 0,0
16.04.2019 19:00:00 15,2 8,2 18,2 11,7 10,8 14 7 22 12 W 1018,5 55 60 0,0
16.04.2019 18:00:00 16,5 8,5 17,1 11,5 10,8 11 6 23 12 WSW 1018,5 60 46 0,0
16.04.2019 17:00:00 16,3 8,0 17,1 11,3 10,8 13 7 24 13 WSW 1018,4 19 46 0,0
16.04.2019 16:00:00 16,1 8,1 17,8 11,1 10,9 14 7 31 17 WSW 1018,7 60 42 0,0
16.04.2019 15:00:00 15,6 8,8 17,2 10,9 10,8 17 9 31 17 WSW 1018,9 19 45 0,0
16.04.2019 14:00:00 15,3 8,3 15,0 10,8 10,8 16 9 29 15 W 1018,5 20 46 0,0
16.04.2019 13:00:00 14,5 8,4 14,1 10,7 10,8 17 9 30 16 W 1018,4 49 40 0,0
16.04.2019 12:00:00 14,2 9,4 13,8 10,6 10,8 17 9 33 18 W 1018,6 20 38 0,0
16.04.2019 11:00:00 13,2 10,0 11,7 10,6 10,8 21 11 30 16 WNW 1018,3 17 38 0,0
16.04.2019 10:00:00 11,1 9,4 11,2 10,6 10,8 17 9 29 16 WNW 1017,7 20 7 0,0
16.04.2019 09:00:00 10,5 9,3 9,6 10,6 10,8 15 8 31 17 WNW 1017,2 17 22 0,0
16.04.2019 08:00:00 9,9 8,8 9,0 10,6 10,8 17 9 35 19 WNW 1016,4 19 2 0,0
16.04.2019 07:00:00 10,2 9,0 9,5 10,6 10,9 19 11 31 17 W 1015,6 18 0 0,0
16.04.2019 06:00:00 10,1 9,0 9,5 10,6 10,8 14 7 36 19 W 1014,8 16 0 0,0
16.04.2019 05:00:00 10,5 9,4 9,9 10,6 10,8 23 13 38 20 W 1014,2 18 0 0,0
16.04.2019 04:00:00 10,8 10,6 10,4 10,6 10,9 19 11 34 19 W 1013,7 9 0 0,0
16.04.2019 03:00:00 10,6 10,4 9,6 10,6 10,8 8 4 15 8 SW 1013,2 3,1 0 0,0
16.04.2019 02:00:00 9,8 9,3 9,1 10,6 10,9 9 5 16 8 SSW 1013,3 1,8 0 0,6
16.04.2019 01:00:00 9,4 8,6 8,9 10,6 10,9 7 4 13 7 SSW 1013,2 13 0 0,2
16.04.2019 00:00:00 9,5 8,1 8,9 10,6 10,8 8 4 14 8 SSW 1012,9 14 0 0,0
15.04.2019 23:00:00 9,4 8,6 8,8 10,6 10,8 5 3 10 6 SSW 1012,1 4,5 0 0,8
15.04.2019 22:00:00 9,5 8,4 8,8 10,6 10,8 3 1 14 8 SE 1011,7 4,8 0 3,8
15.04.2019 21:00:00 10,4 8,0 9,1 10,5 10,8 7 4 12 7 NW 1011,2 10 0 0,8
15.04.2019 20:00:00 11,8 8,8 10,5 10,5 10,8 5 3 9 5 W 1010,7 19 0 0,2
15.04.2019 19:00:00 12,8 8,3 9,9 10,4 10,8 5 3 15 8 NNE 1010,0 40 0 0,2
15.04.2019 18:00:00 14,9 1,7 13,8 10,4 10,9 4 2 26 14 NE 1009,9 60 0 0,0
15.04.2019 17:00:00 14,8 3,0 14,1 10,3 10,9 16 8 32 17 E 1008,8 59 0 0,0
15.04.2019 16:00:00 15,1 -0,3 14,4 10,2 10,8 16 9 32 18 ESE 1009,9 59 0 0,0
15.04.2019 15:00:00 14,5 0,0 14,2 10,1 10,8 20 11 30 16 E 1010,3 46 0 0,0
15.04.2019 14:00:00 14,4 -0,5 14,8 10,0 10,9 23 12 41 22 E 1011,1 55 0 0,0
15.04.2019 13:00:00 14,4 0,2 15,4 10,0 10,8 25 14 44 24 E 1012,1 20 29 0,0
15.04.2019 12:00:00 13,0 0,7 12,5 10,0 10,9 23 13 40 22 E 1013,1 20 46 0,0
15.04.2019 11:00:00 10,2 -0,9 11,5 10,1 10,8 28 15 41 22 E 1014,1 39 50 0,0
15.04.2019 10:00:00 9,1 -0,5 6,6 10,1 10,8 26 14 44 24 E 1015,1 38 60 0,0
15.04.2019 09:00:00 6,5 -2,2 4,5 10,2 10,9 25 13 40 22 E 1015,7 40 25 0,0
15.04.2019 08:00:00 5,3 -2,1 3,6 10,3 10,8 25 13 35 19 E 1016,2 20 19 0,0
15.04.2019 07:00:00 5,3 -2,8 4,1 10,4 10,9 25 13 38 20 E 1016,2 34 0 0,0
15.04.2019 06:00:00 6,0 -2,9 4,0 10,5 10,8 24 13 35 19 E 1016,9 36 0 0,0
15.04.2019 05:00:00 5,4 -2,9 4,0 10,6 10,8 21 11 34 18 E 1017,7 34 0 0,0
15.04.2019 04:00:00 6,0 -2,9 3,8 10,6 10,8 19 10 27 15 E 1018,4 36 0 0,0
15.04.2019 03:00:00 7,0 -3,0 5,1 10,7 10,8 18 10 32 17 E 1018,9 37 0 0,0
15.04.2019 02:00:00 8,2 -2,5 6,7 10,8 10,9 19 11 29 16 E 1019,1 40 0 0,0
15.04.2019 01:00:00 8,5 -1,3 7,0 10,8 10,9 15 8 23 12 E 1019,9 44 0 0,0
15.04.2019 00:00:00 8,6 -1,3 7,4 10,8 10,8 13 7 21 12 E 1020,0 46 0 0,0
14.04.2019 23:00:00 8,8 -1,1 7,3 10,9 10,8 16 9 24 13 E 1019,9 47 0 0,0
14.04.2019 22:00:00 9,4 -2,0 8,1 10,9 10,8 16 9 25 14 E 1020,0 53 0 0,0
14.04.2019 21:00:00 9,7 -2,3 8,3 10,8 10,8 16 9 27 14 E 1019,5 55 0 0,0
14.04.2019 20:00:00 10,7 -1,7 10,1 10,8 10,8 21 12 32 17 E 1019,0 51 13 0,0
14.04.2019 19:00:00 11,0 -2,1 10,2 10,7 10,8 19 10 29 16 E 1019,2 50 28 0,0
14.04.2019 18:00:00 11,9 -1,3 13,8 10,6 10,8 21 12 32 18 E 1018,9 53 48 0,0
14.04.2019 17:00:00 11,6 -0,6 14,3 10,5 10,8 16 9 27 15 E 1019,5 54 23 0,0
14.04.2019 16:00:00 11,0 -2,8 12,5 10,4 10,8 16 9 34 18 E 1020,1 60 8 0,0
14.04.2019 15:00:00 11,1 -1,7 14,7 10,3 10,8 19 10 31 17 E 1020,0 43 31 0,0

tt = Température de l'air
td = dewpoint
tt 5cm = Température de l'air 5cm
tt -20cm = Température de l'air -20cm
tt -100cm = Température de l'air -100cm
ff = Vitesse du vent
fx = gusts
dd = Direction du vent
ppp = reduced air pressure
vv = visibility
sd = Ensoleillement
rr = Quantités de précipitations

stations d'obs. à proximité